Showing default

BEIDOU 3M8, 43246

Orbit data source: Space-Track

BEIDOU 3M8, 43246 is a payload satellite owned by CNSA (CN) in MEO that was launched on Thu, 29 Mar 2018 UTC via a CHANG ZHENG 3B/YZ-1 launch vehicle from the Xichang Space Center, China (XSC). Payload-class satellites include a variety of spacecraft equipped with specific instruments for various scientific and technological missions. These include communications satellites like Starlink; space stations such as the ISS; scientific satellites like the Hubble; Earth observation satellites from companies like Planet Labs, Umbra, and HawkEye 360; GPS; miniature CubeSats for education and research; and military/defense satellites.

Loading next visibility...
Identifier
43246, 2018-029B
Orbit
MEO
Country
Flag of CNCN / PRC
Related business
Manufacturer
SECM
Mission
Operational Defense Navigation
Bus & Motor
BD-3M2, Unknown motor
Mass
1,014 kg wet, ~850 kg dry
Launch date (UTC)
2018-03-29 (8 years ago)
Launch vehicle
CHANG ZHENG 3B/YZ-1
Launch site
Xichang Space Center, China (XSC)
Object type
Payload
Rocket body
Debris
Shape & HBR
Box + 2 Pan, 5.0 m
Radar Cross Section
8.984 m², Large (>1 m²)

Expand to show TLE details & history
Last TLE update: 3 days ago

TLE from 3 days ago
0 BEIDOU 3M8
1 43246U 18029B   26170.03086451 -.00000080  00000-0  00000-0 0  9991
2 43246  54.1899 299.9108 0003782  40.0504 319.9737  1.86229038 55916
Epoch: 2026-06-19T00:44Z
TLE epoch observation values (Epoch: 2026-06-19T00:44:26.693Z)
Latitude
-0.00001°
Longitude
21.51602°
Altitude
21,520.43 km
Speed
3.781 km/s
True Right ascension
19h 59m 34s
True Declination
0° 00' 00"
Sunlit
Object was in daylight at epoch
Visualization orbit readout
Latitude
Unknown
Longitude
Unknown
Altitude
Unknown
Speed
Unknown
Apparent Right ascension
Unknown
Apparent Declination
Unknown
Sunlit
N/A
Visualization observer readout
Local Sidereal Time
21:29:07
Azimuth
Unknown
Elevation
Unknown
Doppler factor
Unknown
Orbital elements
Apogee altitude
21,538.84 km
Perigee altitude
21,517.732 km
Semi-major axis
27,906.423 km
Eccentricity
0.00038
Inclination
54.1899°
RAAN
299.9108°
Arg. of periapsis
40.0504°
True anomaly
319.94582°
Mean anomaly
319.9737°
Eccentric anomaly
319.95976°
Mean motion
0.46557 °/min
Orbital period
773.24 mins
BSTAR
0
Loading maneuver chart data...
Computing Atmospheric mass density...
Loading historical data...
Loading historical data...
Loading historical data...
Loading historical data...
Loading historical data...
Loading historical data...
Loading historical data...
Other satellites on launch #29 in the year 2018 (2018-03-29 UTC)

Documentation

Showing up to 5 results
|